Flag for Belarus Weather past 2 weeks in Minsk, Belarus

Now
55 °F

Sunny.


Feels Like: 54 °F
Forecast: 38 / 54 °F
Wind: 6 mph from Northwest

Location: Loshitsa / Minsk International 1

Current Time: Sep 30, 2014 at 7:39:24 PM

Latest Report: Sep 30, 2014 at 7:00 PM


Visibility: 10 mi

Pressure: 30.15 "Hg

Humidity: 51%

Dew point: 37 °F

Location of MinskLocation

Historic Weather in Minsk — Graph

°F

Minsk temperature yesterday

Maximum temperature yesterday: 63 °F (at 4:00 PM)
Minimum temperature yesterday: 52 °F (at 7:00 AM)
Average temperature yesterday: 58 °F

Past Weeks' High & Low Weather Summary

 TemperatureHumidityPressure
High66 °F (Sep 17, 3:00 PM)100% (Sep 22, 7:00 AM)30.36 "Hg (Sep 22, 7:00 AM)
Low34 °F (Sep 25, 7:00 AM)34% (Sep 19, 2:00 PM)29.50 "Hg (Sep 23, 7:00 AM)
Average54 °F72%30.06 "Hg
* Reported Sep 15 6:00 PM — Sep 30 6:30 PM, Minsk, Weather by CustomWeather, © 2014

Note: Actual official high and low records may vary slightly from our data, if they occured in-between our weather recording intervals... More about our weather records

Advertising

Minsk weather history for previous 24 hours

 ConditionsComfort  
Time TempWeatherWind HumidityBarometerVisibility
6:30 PM
Sep 30
57 °FSunny.6 mph44%30.15 "Hg10 mi
6:00 PM57 °FSunny.8 mph44%30.15 "Hg10 mi
5:30 PM59 °FSunny.8 mph39%30.15 "Hg10 mi
5:00 PM59 °FSunny.8 mph39%30.15 "Hg10 mi
4:30 PM59 °FSunny.10 mph42%30.15 "Hg10 mi
4:00 PM59 °FSunny.10 mph42%30.15 "Hg10 mi
3:30 PM59 °FSunny.10 mph39%30.15 "Hg10 mi
3:00 PM59 °FSunny.13 mph39%30.15 "Hg10 mi
2:30 PM59 °FSunny.13 mph39%30.15 "Hg10 mi
2:00 PM59 °FSunny.10 mph39%30.15 "Hg10 mi
1:30 PM59 °FPartly sunny.10 mph42%30.15 "HgN/A
1:00 PM59 °FSunny.10 mph42%30.15 "Hg10 mi
12:30 PM59 °FSunny.10 mph48%30.15 "Hg10 mi
12:00 PM59 °FSunny.10 mph48%30.15 "Hg10 mi
11:30 AM55 °FSunny.10 mph72%30.15 "Hg10 mi
11:00 AM55 °FSunny.8 mph72%30.15 "Hg10 mi
10:30 AM55 °FPartly sunny.10 mph77%30.15 "HgN/A
10:00 AM55 °FPartly sunny.10 mph77%30.15 "HgN/A
9:30 AM54 °FBroken clouds.10 mph82%30.12 "HgN/A
9:00 AM54 °FBroken clouds.10 mph82%30.12 "HgN/A
8:30 AM54 °FPartly sunny.10 mph88%30.12 "HgN/A
8:00 AM54 °FPassing clouds.10 mph88%30.12 "HgN/A
7:30 AM52 °FPassing clouds.10 mph94%30.09 "Hg4 mi
7:00 AM52 °FPassing clouds.8 mph94%30.09 "Hg4 mi
8:30 PM
Sep 29
59 °FPassing clouds.8 mph72%30.15 "HgN/A
8:00 PM59 °FPassing clouds.8 mph72%30.15 "HgN/A
7:30 PM59 °FPartly sunny.8 mph72%30.15 "HgN/A
7:00 PM59 °FPartly sunny.10 mph72%30.15 "HgN/A
Weather by CustomWeather, © 2014

See weather overviewHow to use our weather pages